CCM614V LFKJ-LFML

Flight info

Callsign CCM614V
Flight time 0h 55m
Altitude 24000
Route TINOT
Aircraft A320/M-SDE3FGHIRWY/LB1

Departure

Time 2026-04-29 12:56
Airport Ajaccio Napoléon Bonaparte airport (LFKJ)

Arrival

Time 2026-04-29 13:52
Airport Marseille Provence Airport (LFML)
Time Latitude Longitude Altitude Speed Heading
2026-04-29 12:27 41.91913 8.79537 21 ft 0 kts 345°
2026-04-29 12:43 41.91893 8.79545 21 ft 4 kts 336°
2026-04-29 12:44 41.91870 8.79562 23 ft 4 kts 328°
2026-04-29 12:44 41.91848 8.79574 22 ft 3 kts 17°
2026-04-29 12:44 41.91845 8.79573 23 ft 0 kts 22°
2026-04-29 12:50 41.91863 8.79583 23 ft 9 kts 23°
2026-04-29 12:51 41.91932 8.79626 21 ft 10 kts 26°
2026-04-29 12:51 41.92001 8.79668 23 ft 13 kts 24°
2026-04-29 12:51 41.92096 8.79728 23 ft 13 kts 28°
2026-04-29 12:51 41.92172 8.79777 22 ft 11 kts 23°
2026-04-29 12:52 41.92241 8.79819 23 ft 10 kts 25°
2026-04-29 12:52 41.92303 8.79856 21 ft 9 kts 24°
2026-04-29 12:52 41.92375 8.79902 22 ft 15 kts 25°
2026-04-29 12:52 41.92474 8.79964 21 ft 17 kts 25°
2026-04-29 12:53 41.92597 8.80039 21 ft 22 kts 25°
2026-04-29 12:53 41.92719 8.80116 23 ft 18 kts 28°
2026-04-29 12:53 41.92816 8.80209 21 ft 16 kts 42°
2026-04-29 12:53 41.92893 8.80311 21 ft 15 kts 46°
2026-04-29 12:54 41.92956 8.80404 22 ft 9 kts 53°
2026-04-29 12:54 41.92966 8.80451 22 ft 0 kts 86°
2026-04-29 12:54 41.92966 8.80452 22 ft 1 kts 86°
2026-04-29 12:55 41.92961 8.80483 23 ft 3 kts 111°
2026-04-29 12:55 41.92949 8.80519 26 ft 12 kts 114°
2026-04-29 12:55 41.92909 8.80565 27 ft 13 kts 180°
2026-04-29 12:55 41.92871 8.80544 26 ft 20 kts 205°
2026-04-29 12:56 41.92467 8.80290 23 ft 106 kts 205°
2026-04-29 12:56 41.91584 8.79739 91 ft 166 kts 206°
2026-04-29 12:56 41.90514 8.78985 662 ft 181 kts 212°
2026-04-29 12:56 41.89401 8.78043 1321 ft 197 kts 215°
2026-04-29 12:57 41.88219 8.76922 1889 ft 215 kts 217°
2026-04-29 12:57 41.87080 8.75815 2228 ft 190 kts 217°
2026-04-29 12:57 41.86010 8.74768 2639 ft 193 kts 216°
2026-04-29 12:57 41.84933 8.73641 3232 ft 196 kts 217°
2026-04-29 12:58 41.83982 8.72391 4068 ft 186 kts 221°
2026-04-29 12:58 41.83034 8.71205 4705 ft 191 kts 219°
2026-04-29 12:58 41.81955 8.70018 5178 ft 213 kts 217°
2026-04-29 12:58 41.80873 8.68884 6464 ft 175 kts 217°
2026-04-29 12:59 41.79938 8.67916 7110 ft 181 kts 217°
2026-04-29 12:59 41.78791 8.66760 6932 ft 225 kts 216°
2026-04-29 12:59 41.77615 8.65609 8153 ft 183 kts 217°
2026-04-29 12:59 41.76622 8.64643 8931 ft 185 kts 217°
2026-04-29 13:00 41.75496 8.63552 9000 ft 212 kts 216°
2026-04-29 13:00 41.74230 8.62359 9271 ft 233 kts 214°
2026-04-29 13:00 41.72790 8.61130 9548 ft 257 kts 220°
2026-04-29 13:00 41.71777 8.59095 9916 ft 276 kts 255°
2026-04-29 13:01 41.71817 8.56511 10495 ft 288 kts 285°
2026-04-29 13:01 41.72659 8.53947 10730 ft 314 kts 298°
2026-04-29 13:01 41.73880 8.51391 10973 ft 337 kts 303°
2026-04-29 13:01 41.75243 8.48783 11540 ft 345 kts 303°
2026-04-29 13:02 41.76606 8.46114 12264 ft 349 kts 302°
2026-04-29 13:02 41.77918 8.43368 13008 ft 352 kts 300°
2026-04-29 13:02 41.79182 8.40545 13740 ft 354 kts 299°
2026-04-29 13:02 41.80409 8.37664 14398 ft 357 kts 298°
2026-04-29 13:03 41.81619 8.34737 15033 ft 361 kts 298°
2026-04-29 13:03 41.82832 8.31773 15650 ft 365 kts 298°
2026-04-29 13:03 41.83968 8.28721 16253 ft 368 kts 291°
2026-04-29 13:03 41.84929 8.25523 16856 ft 372 kts 291°
2026-04-29 13:04 41.85907 8.22298 17468 ft 375 kts 291°
2026-04-29 13:04 41.86902 8.19042 18083 ft 379 kts 291°
2026-04-29 13:04 41.87907 8.15758 18621 ft 382 kts 291°
2026-04-29 13:04 41.88918 8.12446 19157 ft 386 kts 291°
2026-04-29 13:05 41.89923 8.09143 19683 ft 389 kts 291°
2026-04-29 13:05 41.90959 8.05726 20221 ft 392 kts 291°
2026-04-29 13:05 41.91974 8.02369 20768 ft 395 kts 291°
2026-04-29 13:05 41.93020 7.98901 21323 ft 397 kts 291°
2026-04-29 13:06 41.94060 7.95450 21840 ft 400 kts 291°
2026-04-29 13:06 41.95094 7.92015 22313 ft 404 kts 291°
2026-04-29 13:06 41.96152 7.88500 22798 ft 407 kts 291°
2026-04-29 13:06 41.97218 7.84963 23275 ft 410 kts 291°
2026-04-29 13:07 41.98292 7.81402 23711 ft 413 kts 291°
2026-04-29 13:07 41.99373 7.77811 23945 ft 415 kts 291°
2026-04-29 13:07 42.00452 7.74215 24005 ft 416 kts 291°
2026-04-29 13:07 42.01531 7.70605 24010 ft 416 kts 291°
2026-04-29 13:08 42.02608 7.66998 24009 ft 416 kts 291°
2026-04-29 13:08 42.03686 7.63387 24014 ft 416 kts 291°
2026-04-29 13:08 42.04762 7.59776 24010 ft 416 kts 291°
2026-04-29 13:08 42.05837 7.56160 24009 ft 417 kts 291°
2026-04-29 13:09 42.06914 7.52532 24011 ft 417 kts 291°
2026-04-29 13:09 42.07993 7.48907 24010 ft 417 kts 291°
2026-04-29 13:09 42.09069 7.45284 24013 ft 417 kts 291°
2026-04-29 13:09 42.10147 7.41653 24005 ft 417 kts 290°
2026-04-29 13:10 42.11219 7.38023 24012 ft 417 kts 290°
2026-04-29 13:10 42.12288 7.34396 24007 ft 417 kts 290°
2026-04-29 13:10 42.13354 7.30762 24003 ft 417 kts 290°
2026-04-29 13:10 42.14420 7.27131 24002 ft 417 kts 290°
2026-04-29 13:11 42.15485 7.23503 24004 ft 417 kts 290°
2026-04-29 13:11 42.16550 7.19876 23996 ft 416 kts 290°
2026-04-29 13:11 42.17616 7.16246 23996 ft 416 kts 290°
2026-04-29 13:11 42.18681 7.12615 24001 ft 416 kts 290°
2026-04-29 13:12 42.19740 7.08986 24009 ft 416 kts 290°
2026-04-29 13:12 42.20797 7.05360 24010 ft 415 kts 290°
2026-04-29 13:12 42.21854 7.01733 24015 ft 415 kts 290°
2026-04-29 13:12 42.22907 6.98115 24013 ft 415 kts 290°
2026-04-29 13:13 42.23961 6.94490 24011 ft 414 kts 290°
2026-04-29 13:13 42.25009 6.90868 23999 ft 414 kts 290°
2026-04-29 13:13 42.26056 6.87245 23999 ft 414 kts 290°
2026-04-29 13:13 42.27103 6.83625 24001 ft 414 kts 290°
2026-04-29 13:14 42.28139 6.80045 23995 ft 415 kts 290°
2026-04-29 13:14 42.29190 6.76415 23994 ft 415 kts 290°
2026-04-29 13:14 42.30239 6.72785 23993 ft 415 kts 290°
2026-04-29 13:14 42.31300 6.69107 23995 ft 415 kts 290°
2026-04-29 13:15 42.32330 6.65520 23996 ft 415 kts 290°
2026-04-29 13:15 42.33372 6.61880 23997 ft 415 kts 290°
2026-04-29 13:15 42.34426 6.58194 24000 ft 415 kts 290°
2026-04-29 13:15 42.35465 6.54555 24002 ft 415 kts 290°
2026-04-29 13:16 42.36504 6.50915 23999 ft 415 kts 290°
2026-04-29 13:16 42.37528 6.47322 23998 ft 415 kts 290°
2026-04-29 13:16 42.38564 6.43680 24003 ft 415 kts 290°
2026-04-29 13:16 42.39598 6.40044 23833 ft 412 kts 290°
2026-04-29 13:17 42.40625 6.36437 23603 ft 410 kts 290°
2026-04-29 13:17 42.41644 6.32850 23337 ft 407 kts 290°
2026-04-29 13:17 42.42656 6.29284 23072 ft 404 kts 289°
2026-04-29 13:17 42.43660 6.25734 22797 ft 403 kts 290°
2026-04-29 13:18 42.44658 6.22196 22531 ft 400 kts 289°
2026-04-29 13:18 42.45643 6.18699 22266 ft 396 kts 289°
2026-04-29 13:18 42.46621 6.15218 22001 ft 395 kts 289°
2026-04-29 13:18 42.47596 6.11752 21748 ft 394 kts 290°
2026-04-29 13:19 42.48567 6.08287 21499 ft 393 kts 289°
2026-04-29 13:19 42.49531 6.04843 21239 ft 389 kts 290°
2026-04-29 13:19 42.50492 6.01406 20983 ft 389 kts 289°
2026-04-29 13:19 42.51449 5.97981 20734 ft 388 kts 290°
2026-04-29 13:20 42.52405 5.94563 20487 ft 388 kts 290°
2026-04-29 13:20 42.53357 5.91164 20239 ft 383 kts 290°
2026-04-29 13:20 42.54298 5.87797 19991 ft 381 kts 290°
2026-04-29 13:20 42.55233 5.84434 19755 ft 381 kts 290°
2026-04-29 13:21 42.56163 5.81083 19521 ft 378 kts 290°
2026-04-29 13:21 42.57082 5.77765 19282 ft 374 kts 290°
2026-04-29 13:21 42.57993 5.74474 19046 ft 371 kts 290°
2026-04-29 13:21 42.58897 5.71190 18811 ft 372 kts 290°
2026-04-29 13:22 42.59802 5.67898 18578 ft 373 kts 290°
2026-04-29 13:22 42.60708 5.64606 18347 ft 370 kts 290°
2026-04-29 13:22 42.61597 5.61390 18085 ft 368 kts 290°
2026-04-29 13:22 42.62497 5.58128 17819 ft 370 kts 290°
2026-04-29 13:23 42.63394 5.54861 17551 ft 368 kts 290°
2026-04-29 13:23 42.64294 5.51578 17288 ft 365 kts 290°
2026-04-29 13:23 42.65165 5.48397 17077 ft 363 kts 289°
2026-04-29 13:23 42.66041 5.45202 17006 ft 359 kts 290°
2026-04-29 13:24 42.66917 5.41996 17015 ft 363 kts 290°
2026-04-29 13:24 42.67791 5.38785 17017 ft 361 kts 289°
2026-04-29 13:24 42.68713 5.35615 17016 ft 361 kts 295°
2026-04-29 13:24 42.70032 5.32705 17019 ft 363 kts 306°
2026-04-29 13:25 42.71767 5.30208 16898 ft 365 kts 318°
2026-04-29 13:25 42.76077 5.26493 16332 ft 366 kts 328°
2026-04-29 13:25 42.78283 5.24752 16076 ft 366 kts 328°
2026-04-29 13:26 42.80480 5.23005 15831 ft 365 kts 327°
2026-04-29 13:26 42.82664 5.21258 15590 ft 363 kts 328°
2026-04-29 13:26 42.84836 5.19515 15340 ft 362 kts 326°
2026-04-29 13:26 42.86999 5.17778 15095 ft 361 kts 327°
2026-04-29 13:27 42.89161 5.16041 14852 ft 360 kts 327°
2026-04-29 13:27 42.91314 5.14312 14619 ft 359 kts 327°
2026-04-29 13:27 42.93460 5.12587 14380 ft 358 kts 325°
2026-04-29 13:27 42.95465 5.10620 14143 ft 353 kts 317°
2026-04-29 13:28 42.97349 5.08470 13906 ft 352 kts 317°
2026-04-29 13:28 42.99227 5.06328 13654 ft 351 kts 317°
2026-04-29 13:28 43.01097 5.04195 13390 ft 349 kts 317°
2026-04-29 13:28 43.02964 5.02066 13128 ft 349 kts 317°
2026-04-29 13:29 43.04825 4.99945 12867 ft 348 kts 317°
2026-04-29 13:29 43.06678 4.97830 12609 ft 346 kts 318°
2026-04-29 13:29 43.08522 4.95721 12354 ft 343 kts 318°
2026-04-29 13:29 43.10324 4.93658 12103 ft 333 kts 317°
2026-04-29 13:30 43.12079 4.91651 11852 ft 325 kts 317°
2026-04-29 13:30 43.13789 4.89692 11604 ft 317 kts 318°
2026-04-29 13:30 43.15458 4.87777 11362 ft 310 kts 317°
2026-04-29 13:30 43.17091 4.85904 11116 ft 303 kts 317°
2026-04-29 13:31 43.18692 4.84071 10871 ft 297 kts 317°
2026-04-29 13:31 43.20264 4.82268 10625 ft 294 kts 317°
2026-04-29 13:31 43.21804 4.80496 10389 ft 292 kts 316°
2026-04-29 13:31 43.23357 4.78709 10158 ft 291 kts 317°
2026-04-29 13:32 43.24905 4.76929 9919 ft 290 kts 319°
2026-04-29 13:32 43.26668 4.75591 9662 ft 294 kts 343°
2026-04-29 13:32 43.28712 4.75508 9401 ft 299 kts 12°
2026-04-29 13:32 43.30009 4.76245 9220 ft 301 kts 33°
2026-04-29 13:33 43.31710 4.79141 8883 ft 297 kts 73°
2026-04-29 13:33 43.31930 4.81910 8627 ft 292 kts 102°
2026-04-29 13:33 43.31207 4.84453 8374 ft 285 kts 129°
2026-04-29 13:33 43.29769 4.86245 8126 ft 279 kts 149°
2026-04-29 13:34 43.28204 4.87825 7877 ft 281 kts 138°
2026-04-29 13:34 43.27354 4.89213 7707 ft 282 kts 125°
2026-04-29 13:34 43.26501 4.91630 7461 ft 282 kts 108°
2026-04-29 13:34 43.26140 4.94274 7218 ft 283 kts 99°
2026-04-29 13:35 43.25880 4.96944 6956 ft 282 kts 98°
2026-04-29 13:35 43.25612 4.99578 6707 ft 275 kts 99°
2026-04-29 13:35 43.25347 5.02136 6472 ft 267 kts 98°
2026-04-29 13:35 43.25091 5.04592 6226 ft 260 kts 98°
2026-04-29 13:36 43.24837 5.07019 5971 ft 254 kts 99°
2026-04-29 13:36 43.24588 5.09397 5717 ft 250 kts 99°
2026-04-29 13:36 43.24344 5.11742 5472 ft 248 kts 99°
2026-04-29 13:36 43.24104 5.14065 5220 ft 244 kts 99°
2026-04-29 13:37 43.23867 5.16361 4970 ft 242 kts 99°
2026-04-29 13:37 43.23631 5.18620 4721 ft 238 kts 98°
2026-04-29 13:37 43.23396 5.20869 4469 ft 236 kts 98°
2026-04-29 13:37 43.23163 5.23100 4213 ft 236 kts 99°
2026-04-29 13:38 43.22942 5.25295 4051 ft 229 kts 97°
2026-04-29 13:38 43.22924 5.27378 4010 ft 206 kts 92°
2026-04-29 13:38 43.22933 5.29311 4013 ft 200 kts 91°
2026-04-29 13:38 43.23128 5.31197 3998 ft 204 kts 67°
2026-04-29 13:39 43.24088 5.32611 3948 ft 211 kts 30°
2026-04-29 13:39 43.25545 5.33004 3652 ft 220 kts
2026-04-29 13:39 43.27079 5.32970 3344 ft 221 kts
2026-04-29 13:39 43.28612 5.32916 3085 ft 220 kts
2026-04-29 13:40 43.30135 5.32863 2885 ft 216 kts
2026-04-29 13:40 43.31605 5.32815 2734 ft 208 kts
2026-04-29 13:40 43.33038 5.32773 2563 ft 203 kts
2026-04-29 13:40 43.34442 5.32733 2239 ft 202 kts
2026-04-29 13:41 43.35819 5.32383 2013 ft 205 kts 333°
2026-04-29 13:41 43.36921 5.31127 2010 ft 208 kts 314°
2026-04-29 13:41 43.37922 5.29684 1998 ft 208 kts 314°
2026-04-29 13:41 43.38888 5.28301 1990 ft 191 kts 314°
2026-04-29 13:42 43.39752 5.27071 2024 ft 171 kts 314°
2026-04-29 13:42 43.40561 5.25907 1823 ft 168 kts 313°
2026-04-29 13:42 43.41375 5.24695 1382 ft 176 kts 312°
2026-04-29 13:42 43.42284 5.23492 1371 ft 193 kts 316°
2026-04-29 13:43 43.43367 5.22147 1419 ft 227 kts 317°
2026-04-29 13:43 43.44639 5.20544 1389 ft 266 kts 310°
2026-04-29 13:43 43.45403 5.18337 2549 ft 248 kts 278°
2026-04-29 13:43 43.45381 5.16030 3353 ft 240 kts 251°
2026-04-29 13:44 43.44628 5.14051 3693 ft 231 kts 223°
2026-04-29 13:44 43.43360 5.12779 3916 ft 225 kts 199°
2026-04-29 13:44 43.41906 5.11980 3994 ft 223 kts 190°
2026-04-29 13:44 43.40395 5.11892 4006 ft 216 kts 164°
2026-04-29 13:45 43.39055 5.12751 4007 ft 213 kts 138°
2026-04-29 13:45 43.38138 5.14300 4008 ft 212 kts 122°
2026-04-29 13:45 43.37340 5.16009 4010 ft 212 kts 122°
2026-04-29 13:45 43.36544 5.17710 4006 ft 211 kts 122°
2026-04-29 13:46 43.35766 5.19364 3915 ft 200 kts 122°
2026-04-29 13:46 43.35026 5.20936 3785 ft 191 kts 122°
2026-04-29 13:46 43.34321 5.22429 3651 ft 181 kts 122°
2026-04-29 13:46 43.33643 5.23864 3493 ft 173 kts 122°
2026-04-29 13:47 43.32997 5.25233 3245 ft 173 kts 122°
2026-04-29 13:47 43.32341 5.26621 2880 ft 174 kts 123°
2026-04-29 13:47 43.31684 5.28011 2567 ft 173 kts 123°
2026-04-29 13:47 43.31057 5.29428 2255 ft 171 kts 115°
2026-04-29 13:48 43.30905 5.31019 2037 ft 176 kts 82°
2026-04-29 13:48 43.31450 5.32519 1995 ft 172 kts 53°
2026-04-29 13:48 43.32392 5.33528 1999 ft 173 kts 31°
2026-04-29 13:48 43.33552 5.33940 2006 ft 179 kts
2026-04-29 13:49 43.34781 5.33655 2010 ft 183 kts 341°
2026-04-29 13:49 43.35828 5.32644 2012 ft 184 kts 315°
2026-04-29 13:49 43.36719 5.31378 1989 ft 183 kts 315°
2026-04-29 13:49 43.37567 5.30173 1989 ft 170 kts 314°
2026-04-29 13:50 43.38375 5.29026 1848 ft 167 kts 315°
2026-04-29 13:50 43.39172 5.27893 1549 ft 164 kts 313°
2026-04-29 13:50 43.39957 5.26782 1326 ft 164 kts 313°
2026-04-29 13:50 43.40766 5.25635 978 ft 167 kts 311°
2026-04-29 13:51 43.41543 5.24494 731 ft 161 kts 311°
2026-04-29 13:51 43.42314 5.23434 451 ft 149 kts 309°
2026-04-29 13:51 43.43029 5.22415 167 ft 147 kts 309°
2026-04-29 13:51 43.43708 5.21436 39 ft 130 kts 311°
2026-04-29 13:52 43.44237 5.20682 18 ft 69 kts 315°
2026-04-29 13:52 43.44433 5.20412 19 ft 27 kts 317°
2026-04-29 13:52 43.44543 5.20260 19 ft 22 kts 313°
2026-04-29 13:52 43.44629 5.20234 18 ft 7 kts 31°
2026-04-29 13:53 43.44644 5.20250 18 ft 0 kts 41°
2026-04-29 13:53 43.44646 5.20253 17 ft 5 kts 41°
2026-04-29 13:53 43.44674 5.20311 17 ft 0 kts 87°
2026-04-29 13:54 43.44674 5.20315 17 ft 2 kts 92°
2026-04-29 13:54 43.44657 5.20368 19 ft 10 kts 127°
2026-04-29 13:54 43.44594 5.20458 18 ft 17 kts 135°
2026-04-29 13:54 43.44499 5.20592 18 ft 20 kts 133°
2026-04-29 13:55 43.44396 5.20737 18 ft 22 kts 135°
2026-04-29 13:55 43.44306 5.20896 19 ft 21 kts 117°
2026-04-29 13:55 43.44218 5.21060 21 ft 21 kts 134°
2026-04-29 13:55 43.44115 5.21208 25 ft 21 kts 134°
2026-04-29 13:56 43.44012 5.21355 29 ft 21 kts 134°
2026-04-29 13:56 43.43920 5.21503 33 ft 19 kts 102°
2026-04-29 13:56 43.43983 5.21639 34 ft 17 kts 44°
2026-04-29 13:56 43.44058 5.21736 33 ft 12 kts 44°
2026-04-29 13:57 43.44117 5.21835 34 ft 15 kts 87°
2026-04-29 13:57 43.44046 5.21958 37 ft 19 kts 133°
2026-04-29 13:57 43.43973 5.22057 39 ft 9 kts 134°
2026-04-29 13:57 43.43981 5.22126 39 ft 8 kts 35°
2026-04-29 13:58 43.44013 5.22156 40 ft 4 kts 35°
2026-04-29 13:58 43.44018 5.22160 40 ft 0 kts 33°